Airfield :







YOU CAN JOIN US ON...

 
LOGIN :

Register | Disclaimer

   EN    FR    IT 

 









Legend :    VFR   Marginal VFR   IFR   Intensive IFR   Very Intensive IFR
Visi :
Ceiling :
>= 8 km
>= 3000ft
5 to 8 km
1000 to 3000 ft
1500m to 5 km
500 to 1000 ft
800 to 1500m
200 to 500 ft
< 800m
< 200 ft
Symbols :   Thunderstorms  Fog  Heavy snow  Heavy precipitations  Wind > 20 kt







- Airport Elevation : 119 ft
- IATA code : YPJ


CYLA - Aupaluk

CURRENT METAR :
  • 201500Z 22014KT 15SM DRSN FEW010 FEW090 SCT230 M19/M22 A2977 RMK SC1AC1CI2 SC TR SLP088

EXPIRED METARs :
  • 201400Z 22017KT 15SM FEW010 FEW089 SCT220 M18/M22 A2976 RMK SC1AC2CI2 SC TR SLP085
  • 201320Z 21012G21KT 15SM DRSN FEW010 FEW085 SCT230 M18/M21 A2975 RMK SC1AC2CI2 SC TR SLP082
  • 201300Z 23016G22KT 15SM FEW010 FEW085 SCT230 M17/M21 A2975 RMK SC1AC2CI2 SC TR SN CVR/MED PACK SLP080

TAF N/A
CZUL FIR / North America



MET'MAP, your aeronautical weather chart ! - Copyright ORBIFLY December 2007 - Disclaimer

ORBIFLY MET'MAP TEAM :

Programming & Development : Alexandra Zaïnal
Concept & Development : Baudouin d'Aumeries
Co-Development & Prog : Marc-Olivier Méhu
Technical & hardware support : Manuel Goepfert

Contact : metmap@orbifly.com




SOURCES & CREDITS :

   NOAA